Погода в Старой Тушке

Россия / Кировская область     56°44′50″N   50°30′52″E
темп.,
°C
ветер,
м/с
пор.,
м/с
влажн.,
%
обл.,
%
осадки,
мм/ч
давл.,
гПа
погр.,
м
20 января, чт
чт2000:00−17з229951 0.2 101515
03:00−19юз239942 0.2 101739
06:00−19ююз379829 0.0 101783
09:00−16ю4109692 0.0 1016180
12:00−10ююз51392100 0.0 1016366
15:00−8ююз61391100 0.0 1015463
18:00−7ююз61391100 0.0 1015453
21:00−6ююз71490100 0.0 1015526
21 января, пт
пт2100:00−7ююз61490100 0.0 1015466
03:00−9ююз61389100 0.0 1016390
06:00−11ю5129190 0.0 1017277
09:00−12ю5139199 0.0 1018294
12:00−11ю51292100 0.0 1019336
15:00−12ююв4109298 0.0 1020238
18:00−14ююв41096100 0.0 1020161
21:00−14ююв4119669 0.0 1021197
22 января, сб
сб2200:00−14юв5129681 0.0 1021223
03:00−13юв5119689 0.1 1021244
06:00−13юв5119581 0.0 1021258
09:00−12юв51294100 0.1 1022288
12:00−9юв51092100 0.0 1023361
15:00−8юв4995100 0.2 1024383
18:00−8юв3895100 0.1 1025280
21:00−7юв3795100 0.3 1026266
23 января, вс
вс2300:00−8юв3696100 0.3 1027171
03:00−12юв2498100 0.3 102957
06:00−11юв3698100 0.0 1030116
09:00−8юв3796100 0.3 1031208
12:00−6юв4795100 0.9 1032289
15:00−5юв4893100 1.4 1034331
18:00−7юв4989100 0.0 1035274
21:00−8юв3791100 0.0 1036163
24 января, пн
пн2400:00−8юв2490100 0.0 1037104
03:00−11юв2292100 0.0 103831
06:00−14юв2294100 0.0 103815
09:00−13юв2491100 0.0 103954
12:00−8ююв3683100 0.0 1038154
15:00−10юв2290100 0.0 103815
18:00−13ююв2491100 0.0 103748
21:00−13ююв3786100 0.0 1037101